Home > Weather > Youngstown > Past weeks

Flag for U.S.A. Weather for the Past 2 Weeks in Youngstown, Ohio, U.S.A.

Now
9 °F

Light snow. Overcast.


Feels Like: -11 °F
Forecast: 8 / 12 °F
Wind: 21 mph from Northwest

Location: Youngstown-Warren Regional Airport

Current Time: Feb 13, 2016 at 1:20:46 PM

Latest Report: Feb 13, 2016 at 12:51 PM


Visibility: 5 mi

Pressure: 30.42 "Hg

Humidity: 55%

Dew point: -4 °F

Location of YoungstownLocation

Historic Weather in Youngstown — Graph

°F

Youngstown Temperature Yesterday

Maximum temperature yesterday: 20 °F (at 1:51 PM)
Minimum temperature yesterday: 6 °F (at 2:51 AM)
Average temperature yesterday: 14 °F

High & Low Weather Summary for the Past Weeks

 TemperatureHumidityPressure
High62 °F (Feb 3, 2:51 PM)93% (Feb 3, 2:58 AM)30.41 "Hg (Feb 3, 2:58 AM)
Low6 °F (Feb 12, 2:51 AM)36% (Feb 2, 1:51 PM)29.54 "Hg (Feb 9, 4:51 AM)
Average32 °F69%29.97 "Hg
* Reported Jan 29 11:51 AM — Feb 13 11:51 AM, Youngstown, Weather by CustomWeather, © 2016

Note: Actual official high and low records may vary slightly from our data, if they occured in-between our weather recording intervals... More about our weather records

Advertising

Youngstown Weather History for the Previous 24 Hours

 ConditionsComfort  
Time TempWeatherWind HumidityBarometerVisibility
11:51 AM
Sat, Feb 13
9 °FLight snow. Overcast.22 mph45%30.41 "Hg5 mi
10:51 AM8 °FLight snow. Overcast.25 mph54%30.40 "Hg3 mi
9:51 AM8 °FLight snow. Partly sunny.15 mph54%30.38 "Hg3 mi
8:51 AM7 °FLight snow. Partly sunny.15 mph70%30.35 "Hg4 mi
7:51 AM6 °FLight snow. More clouds than sun.8 mph76%30.32 "Hg5 mi
6:51 AM6 °FLight snow. Passing clouds.10 mph79%30.30 "Hg2 mi
5:51 AM6 °FLight snow. Mostly cloudy.13 mph76%30.27 "Hg4 mi
4:51 AM6 °FPassing clouds.10 mph60%30.25 "Hg10 mi
4:00 AM6 °FPassing clouds.16 mph60%30.16 "Hg10 mi
2:51 AM8 °FLight snow. Overcast.17 mph76%30.20 "Hg2 mi
1:51 AM10 °FLight snow. Passing clouds.23 mph64%30.17 "Hg2 mi
12:51 AM13 °FLight snow. Mostly cloudy.22 mph77%30.12 "Hg2 mi
11:51 PM
Fri, Feb 12
14 °FLight snow. Passing clouds.9 mph77%30.08 "Hg1 mi
10:51 PM16 °FLight snow. Mostly cloudy.10 mph74%30.06 "Hg6 mi
9:51 PM16 °FLight snow. Mostly cloudy.15 mph84%30.04 "Hg2 mi
8:51 PM18 °FLight snow. Ice fog.13 mph84%30.00 "Hg1 mi
7:55 PM19 °FLight snow. Ice fog.16 mph81%29.92 "Hg1 mi
6:51 PM18 °FLight snow. Overcast.13 mph80%29.98 "Hg4 mi
6:01 PM19 °FLight snow. Overcast.13 mph77%29.92 "Hg1 mi
4:51 PM19 °FLight snow. Overcast.13 mph77%29.98 "Hg1 mi
4:01 PM20 °FLight snow. Mostly cloudy.13 mph68%29.93 "Hg2 mi
2:51 PM20 °FLight snow. Mostly cloudy.17 mph60%30.00 "Hg5 mi
1:51 PM20 °FLight snow. Mostly cloudy.17 mph62%30.03 "Hg4 mi
Weather by CustomWeather, © 2016

See weather overviewHow to use our weather pages